Location: Newark
(54.4333°N, 18.5500°E)
Time: 04:38:00
(UTC+00:00)

Envisat - Pass Details

Date: 16 December 2019
Orbit: 764 x 766 km, 98.1° (Epoch: 21 January)

Event Time Altitude Azimuth Distance (km) Brightness Sun altitude
Rises 04:14:26 0° 25° (NNE) 3,247 6.5 -22.6°
Reaches altitude 10° 04:17:36 10° 46° (NE) 2,315 5.9 -22.1°
Maximum altitude 04:20:51 17° 86° (E) 1,874 5.9 -21.7°
Drops below altitude 10° 04:24:06 10° 126° (SE) 2,303 6.4 -21.2°
Sets 04:27:14 0° 146° (SSE) 3,223 6.9 -20.7°
